Tracking 29782 objects as of 13-Oct-2024
HD Live streaming from Space Station
objects crossing your sky now

STARLINK-30269

Track STARLINK-30269 now!
10-day predictions
STARLINK-30269 is classified as:


NORAD ID: 57528
Int'l Code: 2023-115H
Perigee: 565.4 km
Apogee: 567.2 km
Inclination: 43.0 °
Period: 95.8 minutes
Semi major axis: 6937 km
RCS: Unknown
Launch date: August 8, 2023
Source: United States (US)
Launch site: AIR FORCE WESTERN TEST RANGE (AFWTR)
Your satellite tracking list
Your tracking list is empty




NASA's NSSDC Master Catalog

Two Line Element Set (TLE):
1 57528U 23115H   24286.39581508 -.00002210  00000-0 -14870-3 0  9990
2 57528  43.0024 273.6820 0001282 263.2579  96.8118 15.02509902 65105
Source of the keplerian elements: AFSPC